Regional Weather Roundup
Issued by NWS Jackson, KY

Home | Current Version | Previous Version | Graphics & Text | Print | Product List | Glossary On
Versions: 1 2 3 4 5 6 7 8 9 10 11 12 13 14 15 16 17 18 19 20 21 22 23 24 25 26 27 28 29 30 31 32 33 34 35 36 37 38 39 40 41 42 43 44 45 46 47 48 49 50
000
ASUS43 KJKL 081510
RWRJKL

EAST KENTUCKY HOURLY WEATHER ROUNDUP
NATIONAL WEATHER SERVICE JACKSON KY
1000 AM EST THU DEC 08 2016

NOTE: "FAIR" INDICATES FEW OR NO CLOUDS BELOW 12,000 FEET WITH
NO SIGNIFICANT WEATHER AND/OR OBSTRUCTIONS TO VISIBILITY.

* THESE REPORTS ARE NOT UNDER NWS QUALITY CONTROL AND MAY NOT
  REPORT WEATHER SUCH AS PRECIPITATION AND FOG.

KYZ079-080-083-085-087-088-110-112-115-119-120-081600
...EASTERN KENTUCKY...

CITY           SKY/WX    TMP DP  RH WIND       PRES   REMARKS
JACKSON        MOSUNNY   32  20  61 W6        30.25R WCI  26
LONDON         MOSUNNY   32  20  61 W13       30.29R WCI  22
SOMERSET*      MOSUNNY   32  23  69 W9        30.35R WCI  24
MONTICELLO*    CLOUDY    33  23  66 W8G17     30.36R WCI  26
WILLIAMSBURG*  MOSUNNY   32  25  74 W7        30.31R WCI  26
MIDDLESBORO*   CLOUDY    35  21  56 W6        30.29R WCI  30
HARLAN APT*    PTSUNNY   34  21  60 CALM      30.25S
PIKE CO APT*     N/A     33  21  62 SW12G18   30.22R WCI  24
BIG SANDY APT* MOSUNNY   33  21  60 W10       30.24R WCI  25
MOREHEAD APT*  PTSUNNY   32  18  55 W12G18    30.28R WCI  23
ASHLAND*         N/A    N/A N/A N/A MISG        N/A
$$

KYZ035-036-041-042-044-050-067-078-099-081600
...CENTRAL KENTUCKY...

CITY           SKY/WX    TMP DP  RH WIND       PRES   REMARKS
MT STERLING*   CLOUDY    32  21  64 NW12G18   30.30R WCI  23
FLEMING/MASON* CLOUDY    29  19  64 W15       30.28R WCI  18
DANVILLE*      PTSUNNY   30  21  69 NW12      30.33R WCI  21
LEXINGTON      MOSUNNY   30  17  58 W20       30.31R WCI  17
FRANKFORT      MOSUNNY   29  16  58 W10G16    30.32R WCI  20
LOUISVILLE     PTSUNNY   30  16  56 NW13      30.37R WCI  20
LEBANON*         N/A     32  18  55 W12G21    30.35R WCI  23
GLASGOW*       MOSUNNY   31  23  71 NW9       30.38R WCI  23
BOWLING GREEN  SUNNY     32  19  58 NW9G18    30.41R WCI  24
$$

KYZ091>093-OHZ055-061-077-WVZ005-015-034-035-042-081600
...SOUTHERN OHIO/WEST VIRGINIA...

CITY           SKY/WX    TMP DP  RH WIND       PRES   REMARKS
COVINGTON      MOSUNNY   26  13  57 W17G30    30.28R WCI  13
COLUMBUS       CLOUDY    26  18  71 W17       30.20R WCI  13
DAYTON         PTSUNNY   25  14  63 W21       30.22R WCI  11
WILMINGTON     CLOUDY    26  16  65 W18G29    30.21R WCI  13
HUNTINGTON     MOSUNNY   35  20  54 W8G21     30.23R WCI  29
CHARLESTON     PTSUNNY   35  22  58 W14G22    30.19R WCI  26
PINEVILLE*       N/A     35  20  54 MISG      30.22R
BECKLEY        CLOUDY    31  19  61 SW9       30.11S WCI  23
BLUEFIELD      CLOUDY    29  16  58 W12G20    30.12R WCI  19
LOGAN CO APT*  CLOUDY    34  21  60 W9        30.18R WCI  26
$$

VAZ002-007-008-TNZ017-027-036-066-071-081600
...SOUTHWEST VIRGINIA/EAST TENNESSEE...

CITY           SKY/WX    TMP DP  RH WIND       PRES   REMARKS
WISE*          PTSUNNY   32  18  55 W7        30.18R WCI  26
ABINGDON*      PTSUNNY   37  17  45 NW9       30.18S WCI  30
BRISTOL        CLOUDY    39  18  42 W10       30.22R WCI  32
MORRISTOWN*    SUNNY     37  21  52 NW8       30.26R WCI  31
SEVIERVILLE*   SUNNY     37  19  48 W6        30.29R WCI  33
KNOXVILLE      CLOUDY    39  20  46 NE3       30.30R
OAK RIDGE      CLOUDY    40  18  41 CALM      30.32R
CROSSVILLE     MOSUNNY   30  19  63 W7        30.30R WCI  23
NASHVILLE      PTSUNNY   34  20  56 N10       30.42R WCI  26
$$

...KEY TO REMARKS...
VSB - VISIBILITY IN MILES
WCI - WIND CHILL INDEX
HX  - HEAT INDEX

$$



USA.gov is the U.S. government's official web portal to all federal, state and local government web resources and services.